Home   Weather   Fort Smith   Past weeks

Flag for Canada Past Weather in Fort Smith, Northwest Territories, Canada — Yesterday and Last 2 Weeks

Now
30 °F

Passing clouds.


Feels Like: 30 °F
Forecast: 30 / 55 °F
Wind: 2 mph from East

Location: Fort Smith

Current Time: Apr 28, 2017 at 4:41:42 am

Latest Report: Apr 28, 2017 at 4:00 am


Visibility: 15 mi

Pressure: 30.05 "Hg

Humidity: 75%

Dew Point: 23 °F

Location of Fort SmithLocation

Past Weather in Fort Smith — Graph

°F

Fort Smith Temperature Yesterday

Maximum temperature yesterday: 54 °F (at 5:00 pm)
Minimum temperature yesterday: 28 °F (at 5:00 am)
Average temperature yesterday: 42 °F

High & Low Weather Summary for the Past Weeks

 TemperatureHumidityPressure
High54 °F (Apr 27, 5:00 pm)87% (Apr 16, 2:00 pm)30.71 "Hg (Apr 16, 2:00 pm)
Low0 °F (Apr 18, 6:00 am)18% (Apr 13, 4:00 pm)29.78 "Hg (Apr 26, 6:00 pm)
Average27 °F48%30.21 "Hg
* Reported Apr 13 3:00 am — Apr 28 3:00 am, Fort Smith, Weather by CustomWeather, © 2017

Note: Actual official high and low records may vary slightly from our data, if they occured in-between our weather recording intervals... More about our weather records

Advertising

Fort Smith Weather History for the Previous 24 Hours

Scroll right to see more
 ConditionsComfort  
Time TempWeatherWind HumidityBarometerVisibility
3:00 am
Fri, Apr 28
32 °FPassing clouds.No wind69%30.04 "Hg15 mi
2:00 am34 °FPassing clouds.2 mph65%30.03 "Hg15 mi
1:00 am36 °FPassing clouds.5 mph65%30.01 "Hg15 mi
12:00 am34 °FPassing clouds.2 mph70%30.00 "Hg15 mi
11:00 pm
Thu, Apr 27
36 °FPassing clouds.3 mph65%29.98 "Hg15 mi
10:00 pm41 °FPassing clouds.2 mph53%29.97 "Hg15 mi
9:00 pm50 °FPartly sunny.2 mph37%29.95 "Hg15 mi
8:00 pm52 °FPassing clouds.3 mph35%29.93 "Hg15 mi
7:00 pm54 °FPassing clouds.3 mph35%29.92 "Hg15 mi
6:00 pm54 °FPassing clouds.5 mph33%29.90 "Hg15 mi
5:00 pm54 °FPassing clouds.10 mph33%29.90 "Hg15 mi
4:00 pm52 °FPassing clouds.3 mph35%29.89 "Hg15 mi
3:00 pm52 °FPassing clouds.7 mph35%29.89 "Hg15 mi
2:00 pm50 °FPassing clouds.8 mph37%29.89 "Hg15 mi
1:00 pm50 °FPassing clouds.10 mph37%29.88 "Hg15 mi
12:00 pm48 °FPassing clouds.14 mph40%29.89 "Hg15 mi
11:00 am46 °FScattered clouds.14 mph43%29.88 "Hg15 mi
10:00 am45 °FPassing clouds.12 mph46%29.89 "Hg15 mi
9:00 am41 °FPassing clouds.10 mph53%29.89 "Hg15 mi
8:00 am37 °FPassing clouds.9 mph60%29.88 "Hg15 mi
7:00 am32 °FPassing clouds.9 mph75%29.88 "Hg15 mi
6:00 am28 °FPassing clouds.9 mph80%29.86 "Hg15 mi
5:00 am28 °FClear.7 mph80%29.85 "Hg15 mi
4:00 am30 °FClear.8 mph75%29.84 "Hg15 mi
Weather by CustomWeather, © 2017

See weather overviewHow to use our weather pages